Weather History for Spirit of St Louis, MO

Change the Weather History Date:

Wednesday, August 7, 2013

  Actual Average Record
Temperature  
Mean Temperature 80 °F -  
Max Temperature 89 °F 84 °F 100 °F (2007)
Min Temperature 72 °F 62 °F 50 °F (1997)
Cooling Degree Days 15    
Growing Degree Days 30 (Base 50)    
Moisture  
Dew Point 70 °F    
Average Humidity 75    
Maximum Humidity 93    
Minimum Humidity 49    
Precipitation  
Precipitation 0.00 in - - ()
Sea Level Pressure  
Sea Level Pressure 29.85 in    
Wind  
Wind Speed 6 mph (SW)    
Max Wind Speed 13 mph    
Max Gust Speed 20 mph    
Visibility 10 miles    
Events Rain    
Averages and records for this station are not official NWS values.
T = Trace of Precipitation, MM = Missing Value Source: NWS Daily Summary

Daily Weather History Graph

Daily Weather History Graph

Search for Another Location

Airport:

Trip Planner

Search our weather history database for the weather conditions in past years. The results will help you decide how hot, cold, wet, or windy it might be!

Date:

Astronomy

Aug. 07, 2013 Rise Set
Actual Time 6:09 AM CDT 8:06 PM CDT
Civil Twilight 5:40 AM CDT 8:35 PM CDT
Nautical Twilight 5:05 AM CDT 9:10 PM CDT
Astronomical Twilight 4:27 AM CDT 9:48 PM CDT
Moon 6:57 AM CDT (8/7) 8:15 PM CDT (8/7)
Length of Visible Light 14h 54m
Length of Day
13h 56m
New Moon, 1% of the Moon is Illuminated
Aug 7
New Moon
Aug 14
First Quarter
Aug 20
Full
Aug 28
Last Quarter
Sep 5
New

Hourly Weather History & Observations

Time (CDT) Temp. Heat Index Dew Point Humidity Pressure Visibility Wind Dir Wind Speed Gust Speed Precip Events Conditions
12:54 AM 75.0 °F - 72.0 °F 90% 29.83 in 10.0 mi SSE 4.6 mph - N/A   Clear
1:54 AM 75.9 °F - 72.0 °F 87% 29.82 in 10.0 mi South 6.9 mph - N/A   Scattered Clouds
2:54 AM 75.9 °F - 72.0 °F 87% 29.82 in 10.0 mi SSW 5.8 mph - N/A   Clear
3:54 AM 73.9 °F - 72.0 °F 93% 29.79 in 10.0 mi SE 3.5 mph - N/A   Clear
4:54 AM 75.0 °F - 72.0 °F 90% 29.80 in 10.0 mi South 4.6 mph - N/A   Clear
5:54 AM 73.9 °F - 70.0 °F 87% 29.80 in 10.0 mi SSW 3.5 mph - N/A   Clear
6:54 AM 73.9 °F - 68.0 °F 82% 29.87 in 10.0 mi WSW 11.5 mph - N/A   Clear
7:54 AM 73.0 °F - 66.9 °F 81% 29.88 in 10.0 mi SW 12.7 mph 19.6 mph 0.00 in Rain Light Rain
8:54 AM 72.0 °F - 68.0 °F 87% 29.88 in 10.0 mi SW 11.5 mph - 0.00 in   Mostly Cloudy
9:54 AM 73.9 °F - 68.0 °F 82% 29.85 in 10.0 mi WSW 9.2 mph - N/A   Overcast
10:54 AM 78.1 °F - 68.0 °F 71% 29.87 in 10.0 mi West 9.2 mph - N/A   Mostly Cloudy
11:54 AM 81.0 °F 83.3 °F 66.9 °F 62% 29.86 in 10.0 mi WSW 6.9 mph - N/A   Mostly Cloudy
12:54 PM 82.9 °F 85.8 °F 68.0 °F 60% 29.86 in 10.0 mi WSW 10.4 mph - N/A   Mostly Cloudy
1:54 PM 86.0 °F 88.8 °F 66.9 °F 53% 29.85 in 10.0 mi WSW 10.4 mph - N/A   Mostly Cloudy
2:54 PM 88.0 °F 90.7 °F 66.9 °F 49% 29.83 in 10.0 mi WSW 8.1 mph - N/A   Scattered Clouds
3:54 PM 88.0 °F 91.4 °F 68.0 °F 51% 29.82 in 10.0 mi WNW 10.4 mph - N/A   Scattered Clouds
4:54 PM 88.0 °F 92.1 °F 69.1 °F 53% 29.83 in 10.0 mi West 8.1 mph - N/A   Scattered Clouds
5:54 PM 87.1 °F 91.3 °F 69.1 °F 55% 29.84 in 10.0 mi WNW 6.9 mph - N/A   Scattered Clouds
6:54 PM 84.9 °F 90.1 °F 71.1 °F 63% 29.85 in 10.0 mi SW 4.6 mph - N/A   Scattered Clouds
7:54 PM 80.1 °F 83.6 °F 71.1 °F 74% 29.86 in 10.0 mi WSW 4.6 mph - N/A   Scattered Clouds
8:54 PM 78.1 °F - 72.0 °F 81% 29.86 in 10.0 mi Calm Calm - N/A   Partly Cloudy
9:54 PM 75.9 °F - 72.0 °F 87% 29.89 in 10.0 mi Calm Calm - N/A   Scattered Clouds
10:54 PM 75.0 °F - 72.0 °F 90% 29.89 in 10.0 mi Calm Calm - N/A   Partly Cloudy
11:54 PM 73.0 °F - 71.1 °F 93% 29.90 in 10.0 mi Calm Calm - N/A   Scattered Clouds